Location: Street
(51.1247°N, 2.7429°W)
Time: 15:44:39
(UTC+00:00)

SR - Pass Details

Date: 05 December 2020
Orbit: 575 x 880 km, 66.7° (Epoch: 26 January)

Event Time Altitude Azimuth Distance (km) Brightness Sun altitude
Rises 01:40:48 0° 320° (NW) 3,178 - -55.4°
Reaches altitude 10° 01:43:06 10° 318° (NW) 2,298 - -55.2°
Maximum altitude 01:48:21 67° 237° (WSW) 872 - -54.6°
Drops below altitude 10° 01:54:00 10° 156° (SSE) 2,463 - -54.0°
Sets 01:56:33 0° 154° (SSE) 3,423 - -53.7°
